Change the Weather History Date:

Wednesday, April 9, 2014

  Actual Average (KOXV) Record (KOXV)
Temperature  
Mean Temperature 50 °F -  
Max Temperature 72 °F 57 °F 84 °F (2011)
Min Temperature 29 °F 35 °F 19 °F (1982)
Degree Days  
Heating Degree Days 14    
Moisture  
Dew Point 31 °F    
Average Humidity 51    
Maximum Humidity 96    
Minimum Humidity 21    
Precipitation  
Precipitation 0.00 in - - ()
Sea Level Pressure  
Sea Level Pressure 29.93 in    
Wind  
Wind Speed 8 mph (SSW)    
Max Wind Speed 22 mph    
Max Gust Speed 34 mph    
Visibility 10 miles    
Events      
Averages and records for this station are not official NWS values.
T = Trace of Precipitation, MM = Missing Value Source: NWS Daily Summary

Daily Weather History Graph

Daily Weather History Graph

Search for Another Location

Airport or City:

Trip Planner

Search our weather history database for the weather conditions in past years. The results will help you decide how hot, cold, wet, or windy it might be!

Date:

Astronomy

Apr. 09, 2014 Rise Set
Actual Time 6:41 AM CDT 7:45 PM CDT
Civil Twilight 6:13 AM CDT 8:14 PM CDT
Nautical Twilight 5:39 AM CDT 8:47 PM CDT
Astronomical Twilight 5:04 AM CDT 9:23 PM CDT
Moon 2:31 PM CDT (4/9) 3:34 AM CDT (4/9)
Length of Visible Light 14h 00m
Length of Day
13h 04m
Waxing Gibbous, 72% of the Moon is Illuminated
Apr 9
Waxing Gibbous
Apr 15
Full
Apr 22
Last Quarter
Apr 29
New
May 6
First Quarter

Hourly Weather History & Observations

Time (CDT) Temp. Windchill Dew Point Humidity Pressure Visibility Wind Dir Wind Speed Gust Speed Precip Events Conditions
12:15 AM 37.2 °F 34.7 °F 30.9 °F 78% 30.05 in 10.0 mi NNW 3.5 mph - N/A   Clear
12:35 AM 36.0 °F 32.1 °F 30.7 °F 81% 30.05 in 10.0 mi WNW 4.6 mph - N/A   Clear
12:55 AM 35.8 °F 33.0 °F 30.0 °F 80% 30.05 in 10.0 mi WNW 3.5 mph - N/A   Clear
1:15 AM 35.4 °F 31.5 °F 30.2 °F 81% 30.05 in 10.0 mi WNW 4.6 mph - N/A   Clear
1:35 AM 36.3 °F 31.6 °F 30.6 °F 80% 30.05 in 10.0 mi West 5.8 mph - N/A   Clear
1:55 AM 36.3 °F 32.5 °F 31.5 °F 83% 30.05 in 10.0 mi West 4.6 mph - N/A   Clear
2:15 AM 34.3 °F 30.2 °F 30.4 °F 85% 30.05 in 10.0 mi West 4.6 mph - N/A   Clear
2:35 AM 35.1 °F 32.2 °F 32.0 °F 89% 30.05 in 10.0 mi West 3.5 mph - N/A   Clear
2:55 AM 34.7 °F 31.8 °F 32.2 °F 91% 30.05 in 10.0 mi WSW 3.5 mph - N/A   Clear
3:15 AM 34.2 °F 30.0 °F 32.2 °F 92% 30.05 in 10.0 mi WSW 4.6 mph - N/A   Clear
3:35 AM 32.5 °F 29.3 °F 31.1 °F 94% 30.04 in 7.0 mi WSW 3.5 mph - N/A   Clear
3:55 AM 32.0 °F 28.7 °F 30.7 °F 95% 30.04 in 7.0 mi WSW 3.5 mph - N/A   Clear
4:15 AM 33.6 °F 30.6 °F 32.5 °F 96% 30.04 in 10.0 mi WSW 3.5 mph - N/A   Clear
4:35 AM 32.0 °F 28.7 °F 30.4 °F 94% 30.05 in 7.0 mi WSW 3.5 mph - N/A   Clear
4:55 AM 33.6 °F - 32.2 °F 94% 30.05 in 10.0 mi Calm Calm - N/A   Clear
5:15 AM 32.0 °F 28.7 °F 30.9 °F 96% 30.05 in 7.0 mi WSW 3.5 mph - N/A   Clear
5:35 AM 32.9 °F - 31.3 °F 94% 30.06 in 10.0 mi Calm Calm - N/A   Clear
5:55 AM 31.8 °F 28.5 °F 30.2 °F 94% 30.06 in 10.0 mi WSW 3.5 mph - N/A   Clear
6:15 AM 32.2 °F 28.9 °F 30.7 °F 94% 30.06 in 10.0 mi SW 3.5 mph - N/A   Clear
6:35 AM 30.9 °F 27.5 °F 28.6 °F 91% 30.06 in 10.0 mi SW 3.5 mph - N/A   Clear
6:55 AM 29.7 °F - 27.9 °F 93% 30.06 in 7.0 mi Calm Calm - N/A   Clear
7:15 AM 30.0 °F - 28.2 °F 93% 30.06 in 7.0 mi Calm Calm - N/A   Clear
7:35 AM 33.3 °F 30.2 °F 31.5 °F 93% 30.07 in 10.0 mi SSW 3.5 mph - N/A   Clear
7:55 AM 36.5 °F 33.9 °F 31.1 °F 81% 30.07 in 10.0 mi South 3.5 mph - N/A   Clear
8:15 AM 39.4 °F 35.2 °F 31.5 °F 73% 30.07 in 10.0 mi SSW 5.8 mph - N/A   Clear
8:35 AM 42.3 °F 38.6 °F 32.0 °F 67% 30.06 in 10.0 mi South 5.8 mph - N/A   Clear
8:55 AM 44.6 °F 42.2 °F 32.4 °F 62% 30.06 in 10.0 mi South 4.6 mph - N/A   Clear
9:15 AM 46.9 °F - 33.4 °F 59% 30.06 in 10.0 mi South 6.9 mph - N/A   Clear
9:35 AM 50.9 °F - 31.6 °F 48% 30.05 in 10.0 mi SSW 6.9 mph - N/A   Clear
9:55 AM 53.2 °F - 30.0 °F 41% 30.04 in 10.0 mi SSW 8.1 mph - N/A   Clear
10:15 AM 54.9 °F - 29.1 °F 37% 30.03 in 10.0 mi SSW 12.7 mph 17.3 mph N/A   Clear
10:35 AM 57.6 °F - 28.8 °F 33% 30.02 in 10.0 mi SSW 13.8 mph 18.4 mph N/A   Clear
10:55 AM 59.5 °F - 28.2 °F 30% 30.01 in 10.0 mi South 13.8 mph 17.3 mph N/A   Clear
11:15 AM 60.3 °F - 27.3 °F 29% 30.01 in 10.0 mi SW 15.0 mph 19.6 mph N/A   Clear
11:35 AM 62.6 °F - 28.0 °F 27% 29.99 in 7.0 mi SSW 12.7 mph 16.1 mph N/A   Clear
11:55 AM 63.5 °F - 26.8 °F 25% 29.97 in 10.0 mi SW 17.3 mph 20.7 mph N/A   Clear
12:15 PM 64.4 °F - 26.4 °F 24% 29.96 in 10.0 mi South 16.1 mph 20.7 mph N/A   Clear
12:35 PM 65.8 °F - 26.6 °F 23% 29.94 in 10.0 mi SSW 15.0 mph 24.2 mph N/A   Clear
12:55 PM 66.4 °F - 27.0 °F 23% 29.93 in 10.0 mi South 18.4 mph 26.5 mph N/A   Clear
1:15 PM 67.3 °F - 27.5 °F 22% 29.92 in 7.0 mi SSW 13.8 mph 26.5 mph N/A   Clear
1:35 PM 68.0 °F - 27.9 °F 22% 29.91 in 10.0 mi SSW 13.8 mph 28.8 mph N/A   Clear
1:55 PM 68.7 °F - 28.6 °F 22% 29.89 in 7.0 mi SSW 17.3 mph 27.6 mph N/A   Clear
2:15 PM 69.8 °F - 29.7 °F 22% 29.88 in 5.0 mi SSW 15.0 mph 25.3 mph N/A   Haze
2:35 PM 70.0 °F - 30.0 °F 23% 29.87 in 10.0 mi SSW 16.1 mph 28.8 mph N/A   Clear
2:55 PM 70.9 °F - 29.8 °F 22% 29.86 in 7.0 mi SSW 19.6 mph 28.8 mph N/A   Clear
3:15 PM 71.8 °F - 30.2 °F 21% 29.84 in 10.0 mi SSW 18.4 mph 26.5 mph N/A   Clear
3:35 PM 71.1 °F - 30.6 °F 22% 29.83 in 10.0 mi South 18.4 mph 27.6 mph N/A   Clear
3:55 PM 71.2 °F - 30.9 °F 23% 29.82 in 10.0 mi SSW 20.7 mph 29.9 mph N/A   Clear
4:15 PM 72.0 °F - 31.6 °F 23% 29.81 in 10.0 mi SSW 19.6 mph 27.6 mph N/A   Clear
4:35 PM 71.1 °F - 30.7 °F 22% 29.80 in 10.0 mi SSW 20.7 mph 28.8 mph N/A   Clear
4:55 PM 72.7 °F - 31.5 °F 22% 29.79 in 10.0 mi SSW 21.9 mph 27.6 mph N/A   Clear
5:15 PM 71.6 °F - 31.6 °F 23% 29.79 in 10.0 mi SSW 18.4 mph 29.9 mph N/A   Clear
5:35 PM 71.4 °F - 32.0 °F 23% 29.79 in 10.0 mi SSW 20.7 mph 27.6 mph N/A   Clear
5:55 PM 71.6 °F - 32.2 °F 23% 29.78 in 10.0 mi SSW 19.6 mph 34.5 mph N/A   Clear
6:15 PM 70.9 °F - 32.2 °F 24% 29.77 in 10.0 mi SSW 21.9 mph 27.6 mph N/A   Clear
6:35 PM 70.0 °F - 32.4 °F 25% 29.77 in 10.0 mi SSW 16.1 mph 28.8 mph N/A   Clear
6:55 PM 68.5 °F - 32.7 °F 27% 29.78 in 10.0 mi SSW 15.0 mph 19.6 mph N/A   Clear
7:15 PM 67.1 °F - 32.9 °F 28% 29.78 in 10.0 mi SSW 12.7 mph 17.3 mph N/A   Clear
7:35 PM 66.2 °F - 33.1 °F 29% 29.78 in 10.0 mi South 10.4 mph - N/A   Clear
7:55 PM 64.0 °F - 33.4 °F 32% 29.77 in 10.0 mi South 11.5 mph - N/A   Clear
8:15 PM 63.3 °F - 33.8 °F 33% 29.77 in 10.0 mi South 11.5 mph 16.1 mph N/A   Clear
8:35 PM 62.6 °F - 33.8 °F 34% 29.77 in 10.0 mi South 11.5 mph - N/A   Clear
8:55 PM 61.5 °F - 34.2 °F 36% 29.76 in 10.0 mi South 10.4 mph - N/A   Clear
9:15 PM 61.0 °F - 34.3 °F 37% 29.77 in 10.0 mi South 10.4 mph - N/A   Clear
9:35 PM 60.6 °F - 34.7 °F 38% 29.76 in 10.0 mi South 11.5 mph - N/A   Clear
10:15 PM 60.8 °F - 34.9 °F 38% 29.76 in 10.0 mi South 12.7 mph - N/A   Clear
10:35 PM 60.8 °F - 34.9 °F 38% 29.75 in 10.0 mi South 11.5 mph - N/A   Clear
10:55 PM 60.8 °F - 34.9 °F 38% 29.74 in 10.0 mi South 13.8 mph - N/A   Clear
11:15 PM 60.8 °F - 34.7 °F 38% 29.74 in 10.0 mi South 9.2 mph 18.4 mph N/A   Clear
11:35 PM 60.8 °F - 34.5 °F 37% 29.73 in 10.0 mi South 12.7 mph 17.3 mph N/A   Clear
11:55 PM 61.2 °F - 34.3 °F 37% 29.72 in 10.0 mi SSW 12.7 mph 20.7 mph N/A   Clear